CZ-6A DEB, 60975

Orbit data source: Space-Track

CZ-6A DEB, 60975 is space debris in LEO originally from a launch on Tue, 06 Aug 2024 UTC launched from the Taiyaun Space Center, China (TSC). Debris objects in space refer to the collection of defunct objects orbiting the Earth. Examples of debris include non-operational satellites, rocket bodies, and fragments generated from explosions, collisions, or faulty payload assembly.

Loading next visibility...
Identifier
60975, 2024-140MA
Orbit
LEO
Country
Flag of CNCN / PRC
Related business
Manufacturer
SAST
Mission
Spacecraft
Bus & Motor
Unknown
Mass
Unknown
Launch date (UTC)
2024-08-06 (2 years ago)
Launch vehicle
Unknown
Launch site
Taiyaun Space Center, China (TSC)
Object type
Payload
Rocket body
Debris
Shape & HBR
Unknown shape, 0.1 m
Radar Cross Section
Medium (>0.1 m² and <1 m²)

Expand to show TLE details & history
Last TLE update: 17 hours ago

TLE from 17 hours ago
0 CZ-6A DEB
1 60975U 24140MA  26171.26334035  .00000792  00000-0  15126-3 0  9997
2 60975  88.9672 266.5831 0126501 243.3725 115.4483 14.57939508 97543
Epoch: 2026-06-20T06:19Z
TLE epoch observation values (Epoch: 2026-06-20T06:19:12.606Z)
Latitude
-0.00002°
Longitude
-96.6999°
Altitude
742.34 km
Speed
7.463 km/s
True Right ascension
17h 46m 19s
True Declination
0° 00' 00"
Sunlit
Object was in full shadow at epoch
Visualization orbit readout
Latitude
Unknown
Longitude
Unknown
Altitude
Unknown
Speed
Unknown
Apparent Right ascension
Unknown
Apparent Declination
Unknown
Sunlit
N/A
Visualization observer readout
Local Sidereal Time
10:18:41
Azimuth
Unknown
Elevation
Unknown
Doppler factor
Unknown
Orbital elements
Apogee altitude
786.229 km
Perigee altitude
607.234 km
Semi-major axis
7,074.868 km
Eccentricity
0.01265
Inclination
88.9672°
RAAN
266.5831°
Arg. of periapsis
243.3725°
True anomaly
116.7483°
Mean anomaly
115.4483°
Eccentric anomaly
116.09919°
Mean motion
3.64725 °/min
Orbital period
98.7 mins
BSTAR
0.00015126
Loading maneuver chart data...
Computing Atmospheric mass density...
Loading historical data...
Loading historical data...
Loading historical data...
Loading historical data...
Loading historical data...
Loading historical data...
Loading historical data...

Documentation

Showing up to 5 results
|